Weather in Bhubaneswar

India     20°16′30″N   85°50′15″E
temp.,
°C
wind,
m/s
gust,
m/s
humid.,
%
clouds,
%
prec.,
mm/h
press.,
hPa
HPBL,
m
4 december, sat
sat423:30+20n31085100 1.7 1014438
02:30+19nw4692100 4.8 1011267
05:30+18n61398100 41.3 1012546
08:30+20nne61397100 22.6 1015656
11:30+20ne81593100 26.1 1014627
14:30+21ne61385100 0.3 1011620
17:30+20nne61292100 1.4 1013604
20:30+20ne61288100 0.5 1015544
5 december, sun
sun523:30+19nne61291100 0.9 1014455
02:30+19nne61291100 0.3 1012451
05:30+19nne51293100 2.7 1013474
08:30+19nne61293100 0.8 1015521
11:30+20nne61293100 2.1 1014512
14:30+20nne51194100 1.4 1011506
17:30+20nne61394100 2.4 1012550
20:30+20nne61394100 0.3 1014520
6 december, mon
mon623:30+20nne61394100 0.6 1012523
02:30+20nne61295100 1.2 1010518
05:30+21n51195100 2.8 1011540
08:30+21n51196100 3.4 1014559
11:30+21nne61193100 4.3 1012519
14:30+22n5108991 0.0 1009546
17:30+22nnw499094 0.1 1011423
20:30+21n379175 0.0 1013216
7 december, tue
tue723:30+21n36948 0.0 1012156
02:30+20nnw349410 0.0 101191
05:30+20nnw36950 0.0 1012125
08:30+23n34800 0.0 1015370
11:30+27n336655 0.0 10131005
14:30+27nnw2365100 0.0 10111036
17:30+26ene017193 0.1 101211
20:30+25ene227587 0.1 101445
8 december, wed
wed823:30+22ne22855 0.1 101422
02:30+21n228423 0.0 101314
05:30+20nnw22840 0.0 101423
08:30+24nne23670 0.0 1017319
11:30+28ne44540 0.0 10151165
14:30+28ne34524 0.0 10131447
17:30+25n11641 0.0 101311
20:30+23ene22760 0.0 101619